This is the latest recevied weather packets stored in our database for station/object AC2VK-1. If no packets are shown the sender has not sent any weather packets the latest 10 day(s).
| Time | Temp. | Humidity | Pressure | Rain* | Wind** | Luminosity | Snow |
|---|---|---|---|---|---|---|---|
| 1777933758 | 24.44° C | 47% | 1014.4 hPa | 0 mm | - | - | - |
| 1777933159 | 24.44° C | 46% | 1014.3 hPa | 0 mm | - | - | - |
| 1777932559 | 24.44° C | 46% | 1014.4 hPa | 0 mm | - | - | - |
| 1777931959 | 24.44° C | 45% | 1014.4 hPa | 0 mm | - | - | - |
| 1777931359 | 25° C | 45% | 1014.4 hPa | 0 mm | - | - | - |
| 1777930759 | 25° C | 44% | 1014.3 hPa | 0 mm | - | - | - |
| 1777930159 | 24.44° C | 48% | 1014.4 hPa | 0 mm | - | - | - |
| 1777929559 | 24.44° C | 46% | 1014.5 hPa | 0 mm | - | - | - |
| 1777928959 | 24.44° C | 44% | 1014.4 hPa | 0 mm | - | - | - |
| 1777928359 | 25° C | 44% | 1014.7 hPa | 0 mm | - | - | - |
| 1777927759 | 25° C | 43% | 1014.6 hPa | 0 mm | - | - | - |
| 1777927159 | 25° C | 46% | 1014.8 hPa | 0 mm | - | - | - |
| 1777926559 | 25° C | 45% | 1014.9 hPa | 0 mm | - | - | - |
| 1777925959 | 25° C | 47% | 1015 hPa | 0 mm | - | - | - |
| 1777925359 | 24.44° C | 49% | 1015.1 hPa | 0 mm | - | - | - |
| 1777924759 | 25° C | 48% | 1015.2 hPa | 0 mm | - | - | - |
| 1777924159 | 24.44° C | 46% | 1015.3 hPa | 0 mm | - | - | - |
| 1777923559 | 24.44° C | 49% | 1015.6 hPa | 0 mm | - | - | - |
| 1777922959 | 24.44° C | 50% | 1015.7 hPa | 0 mm | - | - | - |
| 1777922359 | 23.89° C | 51% | 1016.1 hPa | 0 mm | - | - | - |
| 1777921759 | 23.33° C | 52% | 1016.3 hPa | 0 mm | - | - | - |
| 1777921159 | 23.33° C | 49% | 1016.4 hPa | 0 mm | - | - | - |
| 1777920559 | 23.89° C | 52% | 1016.4 hPa | 0 mm | - | - | - |
| 1777919959 | 23.33° C | 53% | 1016.7 hPa | 0 mm | - | - | - |
| 1777919359 | 23.33° C | 52% | 1016.8 hPa | 0 mm | - | - | - |
* Rain latest hour (hover to see other rain measurements)
** Current wind speed in m/s (hover to see current wind gust speed)